{"data":{"norad_id":66303,"epoch":"2026-05-24T15:33:37.713888Z","epoch_age_seconds":106161,"freshness":"FRESH","line1":"1 66303U 25248L   26144.64835317  .00003972  00000+0  18830-3 0  9996","line2":"2 66303  45.4010 246.6908 0007004 269.6243  90.3841 15.21027335 30953","mean_motion":15.21027335,"eccentricity":0.0007004,"inclination_deg":45.401,"raan_deg":246.6908,"arg_perigee_deg":269.6243,"mean_anomaly_deg":90.3841,"bstar":0.0001883,"rev_number":3095,"period_min":94.672854778116,"perigee_km":497.92117243285,"apogee_km":507.55990568957,"semimajor_km":6880.8775390612,"source":"CELESTRAK","updated_at":"2026-05-25T13:38:06.130712Z"}}